Regional Weather Roundup
Issued by NWS

Home | Current Version | Previous Version | Graphics & Text | Print | Product List | Glossary On
Versions: 1 2 3 4 5 6 7 8 9 10 11 12 13 14 15 16 17 18 19 20 21 22 23 24 25 26 27 28 29 30 31 32 33 34 35 36 37 38 39 40 41 42 43 44 45 46 47 48 49 50
000
ASUS44 KMEG 261110
RWRTN
TENNESSEE HOURLY STATE WEATHER ROUNDUP
NATIONAL WEATHER SERVICE MEMPHIS TN
500 AM CST THU FEB 26 2015

TNZ002-004-019-021-049-052-054-088>092-261200-
WEST TENNESSEE

CITY           SKY/WX    TMP DP  RH WIND       PRES   REMARKS
MEMPHIS INTL   PTCLDY    27  25  92 CALM      29.94R FOG
NWS MEMPHIS      N/A     23 N/A N/A MISG        N/A
JACKSON        CLEAR     22  19  89 CALM      29.92R
DYERSBURG      CLEAR     25  10  54 CALM      29.95R
UNION CITY     CLEAR     21  21 100 CALM      29.91R
PARIS          CLEAR     19  18  93 CALM      29.91R
LEXINGTON      CLEAR     25  25 100 CALM      29.89S
SAVANNAH       MOCLDY    27  27 100 CALM      29.90R VSB 1/2
$$

TNZ008-025-027-028-033-062-065-066-261200-
NORTH MIDDLE TENNESSEE

CITY           SKY/WX    TMP DP  RH WIND       PRES   REMARKS
NASHVILLE      MOCLDY    29  28  96 NW3       29.89R FOG
CLARKSVILLE    CLEAR     24  20  84 CALM      29.89R
SMYRNA         CLOUDY    30  29  96 NW5       29.91R WCI  25
COOKEVILLE     CLOUDY    28  28 100 CALM      29.83R
CROSSVILLE     CLOUDY    28  24  85 NW5       29.79R WCI  23
$$

TNZ061-075-076-078-094-096-097-261200-
SOUTH MIDDLE TENNESSEE

CITY           SKY/WX    TMP DP  RH WIND       PRES   REMARKS
FAYETTEVILLE   MOCLDY    28  27  93 CALM        N/A
TULLAHOMA      CLOUDY    28  27  93 N3        29.84S
WINCHESTER     CLOUDY    28  28 100 CALM      29.84S
MCMINNVILLE    CLOUDY    28  28 100 N3        29.85R
COLUMBIA       CLOUDY   N/A N/A N/A CALM      29.87R
SHELBYVILLE    CLOUDY    30  30 100 NW3       29.87S
$$

TNZ017-018-042-046-047-261200-
NORTHEAST TENNESSEE

CITY           SKY/WX    TMP DP  RH WIND       PRES   REMARKS
TRI CITIES     CLOUDY    30  28  92 CALM      29.75S FOG
ELIZABETHTON   CLOUDY    28  28 100 SW5       29.74R FOG     WCI  23
$$

TNZ012-013-036-069-073-074-261200-
CENTRAL EAST TENNESSEE

CITY           SKY/WX    TMP DP  RH WIND       PRES   REMARKS
KNOXVILLE      NOT AVBL
OAK RIDGE      CLOUDY    31  29  92 W3        29.82R
GATLINBURG     CLOUDY    27  25  93 CALM      29.77R
MORRISTOWN     PTSUNNY   28  28 100 CALM      29.77R
$$

TNZ083-085-099-261200-
SOUTHEAST TENNESSEE

CITY           SKY/WX    TMP DP  RH WIND       PRES   REMARKS
CHATTANOOGA    MOCLDY    29  28  96 CALM      29.83R
$$

SKY/WX REPORTED AS FAIR MEANS FEW OR NO CLOUDS BELOW
12 THOUSAND FEET.



USA.gov is the U.S. government's official web portal to all federal, state and local government web resources and services.